Regional Weather Roundup
Issued by NWS

Home | Current Version | Previous Version | Graphics & Text | Print | Product List | Glossary On
Versions: 1 2 3 4 5 6 7 8 9 10 11 12 13 14 15 16 17 18 19 20 21 22 23 24 25 26 27 28 29 30 31 32 33 34 35 36 37 38 39 40 41 42 43 44 45 46 47 48 49 50
000
ASUS43 KIND 211309
RWRIN

WEATHER ROUNDUP FOR INDIANA
NATIONAL WEATHER SERVICE INDIANAPOLIS IN
800 AM EST SUN DEC 21 2014

NOTE: "FAIR" INDICATES FEW OR NO CLOUDS BELOW 12,000 FEET WITH NO
SIGNIFICANT WEATHER AND/OR OBSTRUCTIONS TO VISIBILITY.

* - STATION DOES NOT REPORT WEATHER SUCH AS PRECIPITATION OR FOG.

+ - STATION NOT QUALITY CONTROLLED BY THE NATIONAL WEATHER SERVICE.
    USE DATA WITH CAUTION...ESPECIALLY DEWPOINT AND RELATIVE
    HUMIDITY OBSERVATIONS.

INZ001>003-010>013-019-020-211400-
NORTHWEST INDIANA

CITY           SKY/WX    TMP DP  RH WIND       PRES   REMARKS
GARY /AIRPORT/ CLOUDY    34  25  69 S8        30.24S WCI  27
KNOX *+        CLOUDY    30  24  78 S7        30.25S WCI  24
LA PORTE +     CLOUDY    32  29  89 S3        30.25S FOG
MICHIGAN CITY+ CLOUDY    32  23  69 S6        30.25S WCI  26
MONTICELLO +   CLOUDY    29  26  88 S5        30.27R WCI  24
RENSSELAER +   CLOUDY    30  30 100 SE8       30.26S WCI  23
VALPARAISO     CLOUDY    30  26  85 S8        30.25S WCI  22

$$

LMZ046-743>745-211400-
SOUTHERN LAKE MICHIGAN

STATION/POSITION TIME  TEMP WIND        PRES
                       AIR  DIR/SP/G
                 (UTC) (F)  (DEG/KT/KT) (MB)

$$

INZ004-005-014>016-021>024-211400-
NORTH CENTRAL INDIANA

CITY           SKY/WX    TMP DP  RH WIND       PRES   REMARKS
GOSHEN         CLOUDY    31  26  82 SE7       30.26F HAZE    WCI  24
LOGANSPORT +   CLOUDY    30  27  86 SE8       30.28S FOG     WCI  23
PERU/GRISSOM   CLOUDY    29  29 100 S8        30.27S WCI  22
ROCHESTER +    CLOUDY    32  30  93 SE5       30.27S FOG     WCI  27
SOUTH BEND     CLOUDY    32  26  78 S6        30.26S WCI  26
WARSAW +       CLOUDY    30  27  86 SE3       30.26F FOG

$$

INZ006>009-017-018-025>027-211400-
NORTHEAST INDIANA

CITY           SKY/WX    TMP DP  RH WIND       PRES   REMARKS
ANGOLA *+      CLOUDY    28  27  93 SE3       30.26F
AUBURN +       CLOUDY    30  28  93 CALM      30.29S FOG
FORT WAYNE     CLOUDY    29  26  89 S6        30.30S WCI  23
HUNTINGTON +   CLOUDY    28  26  91 CALM      30.29S

$$

INZ028-029-035-036-043>045-051>053-211400-
WEST CENTRAL INDIANA

CITY           SKY/WX    TMP DP  RH WIND       PRES   REMARKS
GREENCASTLE +  CLEAR     21  18  86 CALM      30.29S FOG
LAFAYETTE      CLOUDY    26  24  92 S5        30.28R WCI  20
TERRE HAUTE    PTCLDY    26  22  84 SE6       30.29S WCI  19

$$

INZ030>032-037>040-046>048-054>057-064-065-211400-
CENTRAL INDIANA

CITY           SKY/WX    TMP DP  RH WIND       PRES   REMARKS
CP ATTERBURY + CLEAR     18  16  93 MISG      30.31R
COLUMBUS       CLEAR     21  21 100 CALM      30.31R FOG
FRANKFORT +    CLEAR     24  24 100 SE7       30.29S FOG     WCI  16
INDIANAPOLIS   PTCLDY    20  19  96 CALM      30.29R FOG
-EAGLE CREEK   CLEAR     20  16  84 CALM      30.29R FOG
KOKOMO *+      CLOUDY    28  25  86 S9        30.28S WCI  20
MARION +       CLOUDY    27  25  91 S6        30.29S FOG     WCI  21
MT COMFORT *+  CLEAR     21  21 100 CALM      30.29S
SHELBYVILLE    CLEAR     22  19  89 E6        30.29R FOG     WCI  14
ZIONSVILLE +   CLEAR     21  18  87 CALM      30.29R FOG

$$

INZ033-034-041-042-049-050-058-059-211400-
EAST CENTRAL INDIANA

CITY           SKY/WX    TMP DP  RH WIND       PRES   REMARKS
MUNCIE         CLEAR     24  21  88 S3        30.29S FOG

$$

INZ060-061-067>069-081>083-085>088-211400-
SOUTHWEST INDIANA

CITY           SKY/WX    TMP DP  RH WIND       PRES   REMARKS
EVANSVILLE     CLEAR     27  23  85 NE3       30.30R FOG
HUNTINGBURG *+ CLEAR     25  19  80 CALM      30.29S
WASHINGTON +   CLEAR     24  21  87 CALM      30.30R FOG

$$

INZ062-063-066-070>080-084-089>092-211400-
SOUTH CENTRAL AND SOUTHEAST INDIANA

CITY           SKY/WX    TMP DP  RH WIND       PRES   REMARKS
BLOOMINGTON    CLEAR     20  18  92 CALM      30.29R

$$



USA.gov is the U.S. government's official web portal to all federal, state and local government web resources and services.